This demonstration page uses our WeatherBlox Daily Observations layout. Learn more.

Left ArrowRight Arrow

Hourly Observations for June 7, 2015

Temp ( °F °C ) Dew Point ( °F °C ) Humidity (%) Winds ( mph kmh ) Pressure ( in mb ) Visibility ( mi km ) Precip ( " mm )
12:53 am 00:53 Clear 59 15 51 10.6 75 75 Calm 29.87 1012 10 16 0.00 0.00
1:53 am 01:53 Clear 52 11.1 49 9.4 89 89 S 3 6 29.89 1012 10 16 0.00 0.00
2:53 am 02:53 Clear 52 11.1 48 8.9 86 86 S 7 11 29.89 1012 10 16 0.00 0.00
3:53 am 03:53 Clear 48 8.9 46 7.8 93 93 SW 7 11 29.91 1013 10 16 0.00 0.00
4:53 am 04:53 Clear 48 8.9 47 8.3 96 96 WSW 7 11 29.91 1013 10 16 0.00 0.00
5:53 am 05:53 Sunny 48 8.9 46 7.8 93 93 WSW 6 9 29.94 1014 10 16 0.00 0.00
6:53 am 06:53 Mostly Cloudy 51 10.6 50 10 96 96 SSW 7 11 29.95 1014 10 16 0.00 0.00
7:53 am 07:53 Mostly Cloudy 57 13.9 53 11.7 87 87 W 6 9 29.95 1014 10 16 0.00 0.00
8:53 am 08:53 Mostly Cloudy 64 17.8 53 11.7 68 68 SW 9 15 29.95 1014 10 16 0.00 0.00
9:53 am 09:53 Sunny 72 22.2 55 12.8 55 55 WSW 7 11 29.95 1014 10 16 0.00 0.00
10:53 am 10:53 Mostly Sunny 78 25.6 52 11.1 40 40 Calm 29.94 1014 10 16 0.00 0.00
11:53 am 11:53 Sunny 81 27.2 44 6.7 27 27 VRB 3 6 29.93 1014 10 16 0.00 0.00
12:53 pm 12:53 Sunny 83 28.3 38 3.3 20 20 E 6 9 29.91 1013 10 16 0.00 0.00
1:53 pm 13:53 Sunny 86 30 38 3.3 18 18 undefined N/A 29.90 1013 10 16 0.00 0.00
2:53 pm 14:53 Sunny 86 30 40 4.4 20 20 SW 14 22 29.89 1012 10 16 0.00 0.00
3:53 pm 15:53 Mostly Cloudy 85 29.4 43 6.1 23 23 S 9 15 29.88 1012 10 16 0.00 0.00
4:53 pm 16:53 Mostly Cloudy 86 30 41 5 20 20 WSW 12 19 29.87 1012 10 16 0.00 0.00
5:53 pm 17:53 Mostly Cloudy 83 28.3 43 6.1 24 24 WSW 12 19 29.86 1011 10 16 0.00 0.00
6:53 pm 18:53 Cloudy 84 28.9 49 9.4 30 30 W 9 15 29.85 1011 10 16 0.00 0.00
7:53 pm 19:53 Sunny 83 28.3 46 7.8 27 27 W 13 20 29.85 1011 10 16 0.00 0.00
8:53 pm 20:53 Sunny 72 22.2 52 11.1 50 50 WSW 6 9 29.85 1011 10 16 0.00 0.00
9:53 pm 21:53 Clear 66 18.9 52 11.1 61 61 SW 7 11 29.86 1011 10 16 0.00 0.00
10:53 pm 22:53 Clear 61 16.1 51 10.6 70 70 S 7 11 29.86 1011 10 16 0.00 0.00
11:53 pm 23:53 Clear 59 15 51 10.6 75 75 WSW 6 9 29.87 1011 10 16 0.00 0.00

Powered by AerisWeather